Theta_e
340 340 339 339 339 339 338 338 339 340 340 339 338 338 338 337 336 336 336 337 337 338 338 337 337 337 337 336 335 336 336 335 334 333 333 334 333 332 331 329 327 328 330 330 331 331 331 331 331 331 331 331 330 330 331 331 329 327 327 328 329 329 331 330 328 328 328 329 330 330 330 329 330 330 330 332 331 329 328 326 328 330 330 329 328
339 339 339 339 338 338 338 337 338 339 339 338 338 338 337 337 336 336 335 335 335 336 336 336 336 336 337 337 337 336 336 335 334 333 334 335 334 332 331 331 330 328 329 329 330 330 331 332 332 332 332 332 331 331 331 331 329 327 327 329 329 329 330 329 328 328 328 329 329 330 330 329 329 330 330 332 331 330 329 328 328 329 329 329 327
338 338 338 338 338 338 337 337 337 337 337 337 338 337 337 337 336 336 336 335 335 335 335 335 335 336 335 335 335 335 335 334 333 333 334 334 334 333 333 332 332 330 331 331 330 330 331 332 332 331 332 332 332 331 331 331 330 327 325 327 329 329 330 330 329 328 328 329 328 329 330 329 330 330 330 331 330 329 329 328 328 327 328 329 327
333 334 336 336 336 336 336 336 336 336 336 336 337 337 337 337 336 336 336 336 336 336 335 336 336 336 335 334 333 334 334 334 333 333 333 334 334 333 332 331 332 332 332 332 331 330 330 331 332 332 332 332 332 331 331 332 330 328 325 325 328 329 329 330 329 329 327 327 329 329 329 329 330 329 330 331 330 329 328 328 328 327 328 329 327
329 331 332 333 333 333 333 334 334 333 334 334 335 335 335 336 336 336 336 336 336 336 336 336 336 336 335 335 335 334 335 334 334 334 333 334 334 331 329 329 331 332 333 332 332 331 331 330 330 331 332 332 332 331 332 332 331 329 327 326 328 329 329 329 329 329 328 327 327 329 329 329 329 329 330 330 330 329 328 328 328 327 328 329 327
324 326 329 330 331 332 332 333 332 332 332 332 333 334 334 334 334 334 334 335 335 335 335 335 336 336 336 336 336 335 335 334 334 334 334 334 334 333 331 330 331 332 331 332 331 331 331 330 330 331 332 332 332 331 331 331 331 330 328 329 329 329 329 329 328 328 328 328 327 328 329 329 329 330 330 330 330 330 329 329 329 328 329 329 328
323 325 327 329 329 330 330 331 331 332 331 331 332 332 332 332 333 332 332 333 333 334 334 334 336 336 335 335 335 335 335 334 333 334 334 334 334 334 333 332 332 331 331 331 332 331 330 330 331 331 332 331 331 330 330 331 331 330 329 330 330 329 328 328 328 328 328 329 328 327 328 328 329 330 330 330 330 329 329 329 329 328 328 328 328
321 323 325 326 326 328 328 328 330 330 331 331 331 331 331 331 331 332 332 332 332 332 332 333 335 335 335 335 335 334 333 332 331 332 332 331 331 333 333 332 330 330 331 331 332 331 331 330 331 331 331 330 328 327 329 330 330 330 330 330 329 327 326 326 327 329 329 329 328 328 329 329 328 329 329 329 329 329 329 328 328 328 328 327 328
319 320 322 324 325 326 326 326 328 329 330 330 330 330 330 331 331 331 331 331 331 331 332 333 334 334 335 335 335 335 334 332 330 331 331 329 328 329 330 330 329 330 331 331 332 332 331 330 330 330 330 329 327 327 329 330 331 331 330 329 328 326 326 326 325 327 329 328 328 329 329 330 329 327 328 329 329 329 329 328 328 329 328 327 328
317 317 319 320 322 323 324 325 327 328 329 329 329 329 330 330 330 330 331 331 331 331 331 332 333 333 333 333 334 334 334 333 332 330 330 330 330 329 329 330 331 332 332 331 332 332 332 331 330 330 329 327 327 328 330 330 330 330 330 329 327 326 326 326 324 326 328 328 329 329 329 330 329 328 329 329 328 328 328 329 329 328 328 327 327
316 316 317 317 318 319 320 322 324 325 326 327 327 327 328 328 328 328 328 329 330 330 330 330 331 332 332 332 332 333 333 334 333 331 330 331 332 331 329 329 330 332 332 331 332 332 332 331 330 330 330 327 327 329 330 329 328 328 328 328 327 326 326 326 326 326 328 329 329 330 329 329 328 329 330 329 329 329 328 329 329 328 328 327 327
315 315 316 316 317 318 319 320 322 323 324 324 324 324 325 325 325 325 325 326 327 327 328 328 329 330 330 331 332 332 332 333 333 332 331 331 331 329 328 327 329 331 332 331 331 332 332 331 330 330 329 328 328 328 329 328 327 327 328 327 325 324 325 326 327 327 328 328 329 329 329 328 328 328 329 329 329 329 328 328 328 328 328 327 328
315 315 314 315 316 317 318 319 320 322 322 321 321 322 322 323 323 322 323 324 324 325 326 326 327 328 329 329 330 331 331 331 332 332 331 331 330 329 329 330 330 331 332 331 331 332 332 331 331 330 329 328 328 328 328 327 327 328 327 325 324 324 325 327 327 327 328 329 328 328 328 327 328 328 328 328 327 327 328 328 328 329 328 328 328
314 314 313 313 314 315 316 316 318 319 319 319 320 320 321 321 321 321 321 322 323 324 325 325 326 327 327 328 329 330 330 330 331 331 331 331 331 331 331 331 332 332 331 332 331 331 332 331 331 330 329 328 328 327 328 327 327 327 327 325 324 324 325 327 327 328 328 328 329 328 328 328 328 328 327 327 327 327 327 328 328 328 327 327 328
314 313 313 313 313 313 313 314 315 316 316 317 318 319 320 321 321 321 321 321 322 323 324 324 324 325 326 327 328 329 329 329 329 329 329 330 330 331 331 331 331 331 331 331 331 331 331 330 330 330 329 329 328 327 327 328 328 327 327 326 325 323 324 325 326 327 327 327 329 330 329 328 327 328 327 328 327 327 327 327 328 328 327 327 327
313 313 312 312 312 312 312 313 313 313 314 315 317 319 320 320 320 320 320 321 321 322 323 323 323 323 324 325 326 328 328 328 329 329 329 330 330 330 330 330 331 331 331 331 332 332 331 330 330 330 331 330 328 328 328 327 327 327 327 327 326 324 323 323 325 326 326 326 329 330 328 328 327 326 328 329 328 327 327 328 328 328 327 328 328
312 312 311 311 312 312 312 312 312 312 313 313 315 317 317 318 318 319 319 320 321 322 322 323 322 322 323 324 325 326 327 328 328 328 329 330 330 330 330 330 330 331 331 331 331 332 331 330 330 331 331 330 328 327 327 327 327 326 326 326 326 325 325 326 327 327 325 325 327 328 328 328 328 328 329 329 327 326 327 328 328 328 328 328 328
311 311 311 311 311 312 312 312 312 312 312 312 313 314 315 316 316 317 318 318 320 321 322 322 323 322 323 324 324 325 326 327 328 328 328 329 330 330 330 330 330 331 332 331 331 331 330 330 330 330 331 330 328 327 327 327 327 326 326 326 326 327 327 328 328 326 324 325 326 327 328 329 329 330 330 329 327 326 327 328 328 328 328 327 327
310 310 310 311 311 311 311 311 311 311 312 312 312 313 314 314 314 315 316 317 318 320 321 322 322 323 323 323 323 324 325 325 327 328 328 329 329 330 330 330 330 331 332 331 330 330 330 330 330 330 331 330 328 327 326 327 327 326 326 326 327 328 329 328 327 326 325 325 327 328 330 330 329 329 329 328 327 327 327 326 326 328 328 327 327
310 310 310 310 310 311 311 311 311 311 311 311 312 312 312 312 313 314 315 316 317 318 319 320 321 322 322 323 323 324 324 325 326 327 328 329 329 329 329 329 329 330 331 330 329 330 329 329 329 329 331 330 329 327 326 327 327 326 326 326 326 329 329 329 328 327 326 327 328 330 330 329 329 329 326 325 326 327 327 326 324 327 328 327 327
309 309 310 310 310 310 310 310 310 311 311 312 312 312 312 312 312 313 314 315 316 316 317 318 320 321 322 322 323 323 324 325 326 326 327 328 328 328 328 329 329 330 331 330 329 329 329 329 329 329 330 330 328 328 327 326 325 325 326 327 327 329 329 329 329 328 328 329 330 330 329 328 329 329 326 324 326 327 327 326 324 325 328 328 328
308 309 309 309 309 309 309 309 309 310 310 311 311 311 312 312 312 312 312 314 315 315 316 317 318 319 321 322 323 323 323 324 326 326 327 327 328 327 328 328 329 329 330 330 329 329 329 329 329 329 330 330 329 329 327 325 324 325 326 327 328 329 329 329 328 328 328 329 329 330 330 329 329 329 328 328 329 327 327 327 325 324 327 328 328
308 308 308 308 308 308 308 308 308 309 309 309 310 310 311 311 311 310 310 312 314 315 315 316 317 317 319 321 322 323 324 324 325 326 326 326 327 328 328 328 329 329 330 330 329 329 329 329 329 329 328 329 330 329 327 325 325 326 327 328 329 329 329 329 328 328 328 328 329 330 330 330 329 328 329 329 328 327 327 326 324 325 327 328 329
308 308 308 307 307 307 307 308 308 308 308 309 309 309 310 310 310 309 309 312 313 314 314 315 316 316 317 319 321 323 324 325 326 326 325 325 326 327 328 328 329 329 329 329 329 329 328 329 329 329 328 329 330 329 327 326 326 327 328 328 328 328 328 328 328 328 329 329 329 329 330 330 329 328 329 329 328 326 326 326 326 326 328 328 328
307 307 307 307 307 306 306 306 306 307 307 308 308 309 309 310 310 309 309 311 312 312 312 313 314 315 316 318 319 321 323 325 326 326 325 325 326 327 327 327 328 328 328 329 329 328 328 328 328 328 327 328 330 328 326 327 327 327 328 327 327 328 327 328 328 328 328 329 330 329 329 330 330 329 329 329 329 328 327 327 327 327 327 328 327
307 306 306 306 306 305 306 305 305 306 306 306 307 308 308 309 308 308 308 309 310 310 311 311 312 313 314 316 317 319 321 324 325 325 326 326 326 326 326 326 326 326 327 329 329 328 328 328 327 327 326 328 330 329 327 328 328 327 327 327 326 326 326 327 328 328 328 329 330 329 328 329 330 329 329 330 329 329 328 327 327 327 327 327 327
306 306 305 305 305 305 305 305 305 305 305 305 305 306 307 307 307 307 308 309 309 309 310 310 310 311 312 314 316 317 319 321 323 324 325 325 325 326 326 326 326 326 327 328 328 328 327 327 327 328 328 329 330 330 329 328 327 327 326 325 325 325 325 326 327 327 327 327 328 329 328 329 330 329 329 330 329 329 329 328 328 328 327 326 326
305 305 305 305 305 305 305 305 305 304 304 305 305 304 305 306 306 307 307 308 309 309 309 310 310 310 311 312 313 315 317 319 321 322 324 324 325 325 325 325 326 326 327 328 328 327 327 327 328 327 325 326 327 329 330 328 326 325 324 323 323 324 324 325 326 327 326 326 327 327 328 329 330 329 329 329 329 329 329 329 329 328 327 326 326
306 305 305 305 305 305 305 304 304 304 304 304 304 304 304 304 305 306 306 307 308 309 309 309 310 310 310 310 310 312 314 317 319 321 322 324 324 325 325 325 325 326 327 327 327 327 327 327 328 326 323 324 326 329 329 327 325 324 322 321 322 323 325 326 326 326 326 326 326 326 327 328 328 328 328 327 328 328 328 329 329 327 327 326 326
305 305 305 305 304 304 304 304 304 304 304 304 304 304 304 303 303 304 305 306 307 308 309 309 309 309 309 309 309 310 311 314 318 320 321 322 324 325 324 324 325 325 326 326 325 326 326 327 328 327 325 326 327 328 328 326 325 324 322 321 320 321 325 326 326 326 326 325 325 324 325 326 327 327 326 326 326 326 327 327 327 326 325 325 325
305 305 305 304 304 304 304 304 304 303 303 303 304 304 304 303 303 303 304 305 307 308 308 308 309 308 308 308 308 309 309 310 314 317 319 321 322 324 324 325 325 324 325 326 325 324 325 326 327 327 327 327 327 327 327 326 325 324 323 323 322 320 322 324 324 325 325 325 324 323 323 324 325 325 325 325 324 324 325 325 325 326 325 324 324
304 304 304 304 304 304 303 303 303 303 303 303 303 304 304 303 303 303 303 304 306 307 308 308 308 308 308 308 308 308 308 308 310 314 317 318 320 321 323 324 325 325 325 326 325 323 323 325 326 326 326 327 327 326 326 326 326 325 324 324 324 323 322 321 321 322 323 323 323 323 323 324 324 325 325 325 324 323 324 325 325 326 325 324 325
303 304 304 303 303 303 303 303 303 303 303 303 303 303 304 303 303 303 303 303 304 306 307 307 307 307 307 307 307 307 308 307 308 309 312 314 316 318 320 322 323 324 324 325 325 325 325 325 325 325 325 326 326 326 327 327 327 326 324 323 325 326 325 323 322 322 323 323 323 323 323 324 324 324 324 324 323 323 324 324 325 326 326 326 326
303 303 303 303 303 302 302 302 302 303 303 302 303 303 303 303 303 303 303 302 303 305 305 306 306 306 306 307 307 307 307 307 307 307 308 310 312 314 316 318 319 321 322 324 324 325 325 325 325 325 325 325 325 325 326 327 326 326 325 324 324 326 326 325 325 324 324 324 323 323 323 324 324 324 324 324 323 323 324 324 325 325 325 325 325
302 302 302 302 302 302 302 302 302 302 302 302 303 303 303 303 303 303 303 302 303 304 305 305 305 306 306 306 306 306 306 306 306 306 307 308 309 310 311 313 315 316 318 320 321 322 323 324 324 325 325 325 325 325 326 326 326 325 325 324 323 323 325 325 326 326 326 325 325 325 325 324 324 323 323 323 324 323 323 324 324 323 323 324 324
302 301 301 301 301 301 301 301 301 301 301 302 302 303 303 303 303 303 303 302 302 303 304 304 304 305 305 305 305 305 306 306 306 306 306 306 307 307 308 309 310 311 312 315 317 318 319 321 322 323 324 324 324 324 325 325 325 325 324 324 323 323 322 323 325 327 327 327 327 327 327 326 324 323 323 323 323 323 323 323 323 323 322 322 322
301 301 301 300 300 301 301 301 301 301 301 302 302 302 302 303 302 303 303 302 302 302 303 303 303 304 304 304 304 304 305 305 305 305 305 305 305 305 306 307 307 308 309 310 311 313 315 316 318 319 321 322 322 323 324 325 325 325 324 324 324 323 323 322 324 325 326 326 326 326 326 327 325 324 323 324 324 323 324 324 323 323 323 323 323
301 301 301 300 300 301 301 301 300 300 301 301 302 302 302 302 302 302 302 302 302 302 302 302 303 303 303 303 303 303 304 304 304 304 304 304 305 304 305 305 305 306 307 307 308 309 310 311 312 314 316 318 319 321 323 324 324 324 324 323 323 324 323 323 323 324 324 324 324 323 324 325 324 323 323 324 324 324 324 324 324 324 323 323 323
301 300 300 300 300 300 300 300 300 300 300 301 301 301 302 302 302 302 302 302 302 302 302 302 302 302 302 302 302 302 303 303 303 304 304 304 304 304 304 304 304 304 305 306 307 307 307 308 309 310 312 313 315 318 320 322 323 324 323 323 323 323 323 323 323 323 323 323 323 323 323 323 323 322 322 323 323 323 323 324 323 323 321 320 320
300 299 299 300 300 300 300 300 300 300 300 301 301 301 301 301 302 302 301 301 302 301 301 301 301 302 301 301 302 302 302 302 303 303 303 303 303 303 303 304 304 304 304 305 306 306 306 307 307 308 309 310 312 313 316 318 321 322 322 322 322 322 323 323 322 321 322 322 322 322 323 323 322 321 321 322 322 323 323 322 320 319 319 318 317
299 298 299 299 299 299 300 300 300 300 300 300 300 301 301 301 301 301 301 301 301 301 301 301 301 301 301 301 301 302 302 301 302 302 302 303 303 303 303 303 303 303 303 304 304 305 305 305 306 307 308 308 309 310 312 314 316 319 321 321 321 321 322 322 321 321 321 321 321 322 323 323 322 321 321 321 321 322 322 319 317 317 318 318 317
298 298 298 299 299 299 300 300 300 300 300 300 300 300 300 300 301 301 300 300 301 301 300 300 300 300 301 301 301 301 301 301 301 301 301 301 301 302 302 302 302 303 303 303 303 303 303 304 305 306 306 307 308 309 309 311 313 315 317 319 319 318 319 320 320 320 320 321 320 321 322 322 321 321 322 321 321 321 320 318 316 316 316 316 316
298 297 297 298 299 299 300 300 300 300 300 300 300 300 300 300 300 300 300 300 300 300 300 300 300 300 300 301 300 301 301 301 301 301 301 300 300 300 301 301 301 301 301 302 302 302 302 303 303 304 305 305 306 307 308 309 310 311 313 315 315 315 316 318 318 318 318 319 320 320 321 322 321 321 321 321 319 317 316 315 315 315 315 315 315
297 296 296 297 298 299 300 300 300 300 300 300 300 300 300 300 300 300 300 300 300 300 300 300 299 299 300 300 300 300 300 300 300 300 300 300 300 300 300 300 300 300 300 300 300 300 301 301 302 302 303 303 304 305 306 306 307 308 310 311 311 311 314 316 317 316 317 318 318 317 318 320 320 318 317 316 314 313 313 313 314 314 314 313 312
297 296 297 297 298 298 299 299 299 300 300 300 300 300 300 300 300 300 300 300 299 299 299 299 299 299 299 299 300 300 300 300 300 300 300 300 299 299 299 299 299 300 299 299 299 299 300 299 300 300 301 302 302 303 304 304 305 306 307 308 307 308 311 314 315 314 314 314 314 315 315 316 317 315 313 313 312 312 311 311 311 311 310 309 308
296 297 298 298 298 298 299 299 299 299 299 299 300 300 300 300 300 299 299 299 299 299 299 299 299 299 299 299 299 300 300 300 299 299 299 299 299 299 298 298 298 299 299 299 299 299 299 299 298 298 299 300 301 301 302 303 303 303 304 305 305 305 307 309 310 310 309 308 308 310 311 311 312 312 311 311 311 309 308 307 306 305 305 304 303
297 297 298 298 298 298 298 298 298 298 298 298 298 299 299 299 300 300 299 299 299 299 299 299 299 299 298 299 299 299 300 300 299 299 298 298 299 299 298 297 297 297 298 298 298 298 298 298 298 298 298 299 300 300 301 301 301 302 302 303 303 303 304 305 306 305 304 304 304 305 305 306 306 306 307 307 306 305 304 304 303 302 302 301 301
297 297 298 298 298 298 297 297 297 297 297 297 297 297 298 299 299 299 299 299 298 298 298 299 299 298 298 298 298 299 299 299 299 299 298 298 298 298 297 296 296 296 296 297 298 298 298 298 298 298 297 298 298 299 299 300 300 300 301 301 302 302 302 303 303 302 302 302 303 303 303 303 303 303 303 303 302 302 302 302 301 301 300 299 298
297 297 297 297 297 297 297 297 297 297 297 297 296 296 297 298 299 299 299 299 298 298 298 298 298 298 298 298 298 298 299 299 299 299 299 298 298 298 297 297 296 296 296 296 296 297 297 298 298 298 297 297 297 297 298 298 299 299 300 300 301 301 301 301 301 301 302 302 302 302 302 302 301 301 301 300 300 300 300 300 300 300 299 298 297
297 298 297 297 297 297 297 297 297 297 297 296 296 296 296 297 299 299 299 298 298 298 298 298 298 298 298 298 298 298 298 299 299 299 299 298 298 298 297 297 297 296 295 295 295 295 296 297 298 298 297 297 297 297 297 297 298 298 298 299 299 299 300 300 300 300 301 301 301 301 301 301 301 301 301 300 300 300 300 300 300 300 299 299 299
297 298 297 297 297 297 297 297 297 297 296 296 296 296 295 296 298 299 299 298 298 298 298 298 298 298 298 298 298 298 298 298 298 298 298 298 298 298 298 297 297 296 296 295 295 295 295 296 297 298 298 297 297 297 297 297 298 298 298 298 298 298 298 299 299 299 300 300 300 300 300 300 300 300 300 300 300 299 299 299 299 298 298 298 298
Wind_Speed
4 5 6 6 7 7 5 4 6 7 7 6 5 5 6 5 5 6 7 6 7 8 9 10 10 10 11 12 13 13 14 15 17 17 17 16 16 16 16 16 17 19 20 20 19 19 19 20 21 21 21 21 23 24 23 22 21 22 24 24 24 23 21 22 22 20 19 17 15 15 14 15 14 14 13 12 12 13 13 13 11 10 8 8 9
5 6 7 7 8 8 7 6 5 5 6 6 5 5 6 6 7 8 8 6 5 6 8 10 11 11 11 12 13 13 14 15 16 16 15 15 15 14 16 17 18 20 21 20 20 20 21 20 21 22 21 21 23 24 24 24 23 21 22 24 25 24 24 24 24 22 20 18 17 15 14 15 15 15 14 14 14 14 15 14 13 11 9 9 9
10 10 9 10 10 9 9 8 7 7 6 5 4 4 4 5 6 6 7 8 8 7 6 6 7 7 8 10 11 12 13 14 14 13 12 13 13 13 14 16 17 19 19 19 20 21 21 21 21 22 22 21 22 24 25 25 25 23 22 24 25 25 26 25 24 24 20 17 16 15 14 14 15 15 16 16 16 17 17 16 14 13 11 10 9
15 14 14 13 13 12 12 11 10 9 7 6 5 5 5 4 4 4 5 5 5 6 7 7 5 4 6 7 9 10 10 12 13 12 11 11 12 12 13 14 16 17 17 17 18 19 20 20 21 22 21 20 21 24 26 26 26 25 23 24 26 26 26 25 24 25 22 18 16 15 14 14 15 15 16 17 17 17 18 18 16 14 12 10 10
17 17 17 16 15 14 13 12 12 11 9 7 6 5 4 3 2 3 5 6 6 5 6 7 6 6 6 6 7 7 8 9 11 11 10 11 11 12 11 13 15 16 16 15 15 16 17 17 19 20 20 20 20 22 25 26 27 27 26 26 27 27 26 25 25 25 25 24 21 16 13 14 16 15 15 17 18 17 18 19 17 15 13 11 11
18 17 16 15 14 12 11 11 11 10 9 8 6 5 5 4 5 5 5 6 7 7 7 7 7 7 6 6 6 7 7 8 9 10 10 10 11 11 11 11 13 15 15 14 13 14 15 16 16 18 19 19 19 20 22 23 26 28 28 27 28 27 25 25 25 26 26 26 24 21 17 14 13 14 14 14 16 17 17 17 16 15 14 13 12
17 17 16 15 13 12 12 12 10 9 9 7 6 7 6 7 7 7 7 7 8 9 8 6 5 7 8 9 9 9 8 9 10 11 10 10 10 11 11 11 13 14 14 14 13 14 15 15 15 15 16 18 19 20 20 20 24 27 28 28 27 24 22 22 23 25 25 24 23 25 22 15 12 14 15 14 15 18 18 17 17 16 15 14 12
16 17 18 17 15 14 13 12 10 8 8 7 8 8 8 8 8 7 7 7 8 8 8 6 6 8 9 10 11 11 11 11 11 11 10 9 9 11 11 11 13 13 12 14 14 14 14 15 15 15 15 17 18 19 19 19 22 26 28 27 23 19 17 17 19 21 22 21 21 24 24 21 16 14 15 15 16 18 19 20 18 16 16 15 14
15 16 17 17 15 14 13 11 9 7 7 8 9 9 9 9 8 7 7 7 7 6 7 6 7 8 9 9 10 11 11 11 11 9 10 11 10 11 13 12 12 11 11 13 15 14 14 15 16 16 16 16 14 14 16 17 19 24 28 24 19 17 16 15 16 18 17 18 19 21 22 22 19 15 14 17 18 18 18 19 19 17 16 17 16
13 14 15 15 14 13 12 10 9 8 8 8 8 9 9 9 8 8 8 7 6 5 5 5 6 7 8 8 9 11 11 10 11 10 12 14 12 11 11 11 11 11 11 13 14 14 14 14 14 14 15 15 13 11 13 15 15 19 23 23 19 18 17 17 18 18 17 17 19 20 19 19 18 16 15 17 19 19 18 18 20 20 19 19 18
13 13 13 13 13 12 12 11 11 10 9 9 9 9 8 8 8 8 7 7 7 6 4 4 5 6 7 8 9 11 11 11 13 13 12 12 13 12 11 11 11 11 11 12 13 14 14 15 14 13 14 14 13 12 14 15 16 17 19 20 20 18 17 18 20 20 18 19 20 19 19 19 18 17 15 15 16 17 17 18 20 19 18 18 18
13 13 13 12 13 13 13 13 12 11 11 10 11 11 11 11 11 10 10 9 9 7 6 5 5 5 6 8 9 11 12 13 14 13 11 10 13 13 12 12 12 12 12 12 13 13 14 15 15 15 15 15 15 15 15 15 16 17 18 19 20 18 17 17 19 19 20 20 20 20 20 19 19 20 18 17 17 17 15 16 18 17 17 17 17
14 14 14 14 14 14 14 14 13 13 13 13 15 15 15 15 15 14 13 13 12 10 8 6 4 5 6 8 9 11 13 14 14 14 13 11 13 13 12 11 12 12 12 12 13 14 15 15 14 15 16 16 16 17 17 17 17 18 19 21 21 19 17 17 18 19 20 21 20 20 20 20 20 21 21 21 21 18 16 15 15 16 20 21 18
14 15 15 14 14 15 14 15 14 15 15 15 17 17 17 17 17 16 15 15 14 12 10 8 6 5 7 8 9 9 11 12 13 15 15 13 12 12 11 11 11 12 12 13 14 14 16 15 13 15 18 17 17 18 18 17 16 17 19 21 21 19 17 17 18 19 20 21 19 18 19 20 20 20 20 21 21 17 17 17 14 15 20 22 20
14 14 15 14 14 13 13 13 13 14 14 15 15 16 16 16 17 17 16 16 16 13 11 10 8 7 7 7 8 8 9 11 12 15 16 15 14 13 12 12 12 12 12 13 14 14 15 16 14 16 19 18 18 19 18 17 16 16 18 19 19 20 19 17 17 18 20 20 18 17 19 19 20 20 18 19 19 16 14 16 16 17 19 19 18
13 13 14 14 14 13 12 12 12 12 13 13 14 14 15 15 15 15 15 15 15 14 13 12 10 9 8 8 7 7 9 10 12 14 14 15 15 15 14 13 13 13 13 14 14 14 15 16 15 17 20 19 18 19 19 18 17 16 17 18 18 19 20 20 20 19 19 20 18 19 20 19 18 19 17 17 19 17 15 15 17 19 20 18 16
12 13 13 14 14 14 13 13 13 13 13 13 14 14 14 15 14 14 14 14 14 14 15 14 12 11 10 8 7 8 9 10 11 13 13 13 14 15 15 15 14 14 14 14 14 14 15 15 16 19 21 21 20 19 19 18 17 17 17 17 18 19 20 20 20 19 19 19 18 19 19 17 15 15 15 17 19 18 16 16 18 18 18 18 16
12 12 13 14 15 15 15 15 15 14 14 14 14 14 14 15 15 15 15 14 14 14 14 15 14 13 12 9 7 8 9 9 11 12 13 13 13 14 15 15 15 14 14 15 14 14 15 16 17 19 21 22 21 19 19 18 17 17 17 17 17 17 18 19 19 19 19 18 18 18 17 15 15 15 15 18 19 19 19 18 18 18 19 18 17
12 13 14 15 16 16 16 15 16 15 14 14 13 14 14 14 14 15 16 15 14 14 13 14 14 14 13 12 10 9 10 10 11 12 13 13 13 14 15 14 14 13 14 15 14 14 15 16 18 20 20 22 22 20 19 19 18 17 16 16 16 16 18 19 19 19 19 18 18 17 16 15 17 18 18 18 20 21 21 20 19 19 20 19 17
12 13 14 16 16 16 16 16 17 16 15 14 13 13 14 14 14 15 16 16 15 14 13 13 14 14 15 15 13 12 11 12 12 12 13 14 14 13 14 15 14 14 15 15 15 15 15 16 19 22 22 22 23 20 19 19 18 16 15 15 16 17 18 19 19 19 18 17 17 17 17 17 17 18 19 19 20 22 22 22 20 19 19 19 17
13 13 14 16 16 16 17 18 19 18 18 18 17 17 16 16 16 16 17 18 17 16 15 14 14 14 15 15 15 13 13 13 13 13 13 14 15 14 15 15 15 15 16 16 16 16 16 17 20 22 22 23 23 21 20 20 18 16 15 16 16 18 18 18 19 18 17 17 16 16 18 17 16 18 18 18 20 22 21 21 20 19 17 17 17
14 14 15 16 16 17 17 19 20 20 20 21 21 20 19 19 17 16 17 18 18 18 17 16 15 14 14 14 14 14 14 13 14 14 13 13 14 14 15 16 16 16 17 18 18 18 18 19 20 22 23 23 22 21 21 20 18 16 16 16 17 18 18 18 18 17 17 17 17 17 17 17 17 18 17 16 18 21 21 21 21 19 17 16 17
14 14 15 15 16 16 18 19 20 21 22 22 22 22 21 20 18 16 17 18 18 18 17 17 16 15 14 13 13 13 14 14 14 15 14 13 14 14 15 16 17 17 18 19 19 19 20 20 20 21 22 21 20 21 20 18 17 16 16 17 17 17 17 17 16 16 17 17 17 18 17 17 19 19 18 17 18 20 21 20 20 19 18 17 17
14 15 15 16 17 18 19 21 22 23 23 23 23 23 23 22 19 17 18 19 18 18 18 18 17 15 13 13 12 12 13 14 14 15 15 14 13 15 17 16 17 18 17 17 18 19 20 19 19 20 20 18 19 20 19 18 17 16 16 17 17 16 16 16 16 16 16 16 17 18 18 18 19 19 18 18 18 19 19 19 19 19 19 20 20
15 16 17 18 20 21 22 23 24 24 25 25 25 24 24 24 22 19 19 18 17 17 18 18 18 17 15 13 12 12 12 13 14 14 15 15 13 15 18 18 20 20 16 14 16 18 19 19 19 20 19 18 19 19 18 16 16 16 16 16 16 16 16 16 16 16 16 16 16 18 19 18 19 19 18 17 17 18 18 18 19 18 18 20 22
16 17 18 19 21 22 23 24 24 24 25 25 26 25 25 24 22 19 17 17 16 16 17 17 18 19 18 16 13 12 12 12 13 13 14 14 12 14 17 18 20 19 15 14 14 16 18 18 18 19 19 19 18 18 16 15 16 16 16 16 16 16 16 16 16 16 16 16 16 17 18 18 19 18 17 17 18 19 19 19 19 19 19 19 22
16 17 18 19 20 21 22 22 22 23 24 24 25 25 25 25 23 20 18 16 15 15 16 17 17 19 19 18 16 13 11 11 12 12 13 12 10 11 13 14 15 13 13 13 12 15 18 17 17 18 18 18 17 16 15 15 16 16 16 16 16 16 16 16 16 16 16 17 16 17 17 17 18 18 17 18 18 20 20 20 21 21 21 20 22
16 17 17 18 19 19 20 20 20 21 22 22 23 24 25 25 24 23 19 16 15 15 16 17 17 18 19 19 18 16 13 12 12 12 12 11 8 9 9 10 11 8 9 10 9 11 14 14 14 14 14 15 15 15 15 16 17 17 16 16 15 16 16 16 16 16 16 16 17 18 18 17 17 17 18 18 18 19 21 21 23 23 22 21 20
15 16 17 17 18 18 18 19 19 19 20 21 21 22 24 24 25 24 21 17 16 16 16 17 18 18 18 18 18 17 15 13 12 11 10 9 7 7 6 6 8 8 7 8 8 8 10 10 10 10 12 15 15 15 15 16 16 16 16 16 16 16 16 16 17 17 17 17 17 18 19 18 18 19 19 19 19 21 21 22 24 26 24 20 16
14 15 15 16 16 17 17 18 18 19 20 20 20 20 22 24 25 25 23 19 17 17 17 18 19 19 18 18 18 18 17 15 13 11 10 10 8 6 6 4 4 7 9 10 11 10 8 8 9 9 12 15 15 14 14 15 15 15 15 15 16 17 16 16 16 16 17 18 18 18 18 18 19 20 20 20 20 21 22 21 24 26 25 20 15
13 13 14 15 15 16 16 17 18 19 19 20 20 19 21 23 24 25 25 21 18 18 18 18 19 18 18 18 18 18 18 17 16 14 11 10 9 7 7 5 3 5 8 11 12 11 10 9 9 10 12 13 13 13 13 13 14 14 14 14 16 17 17 16 16 16 16 17 17 17 18 18 19 20 20 20 20 21 22 21 22 24 24 22 18
12 13 13 13 14 15 16 17 17 18 18 19 19 18 19 21 23 24 24 22 20 19 18 19 19 18 18 19 19 18 19 19 18 17 15 12 10 8 7 7 5 4 7 9 11 12 13 13 10 10 11 12 13 12 11 11 13 14 14 14 14 14 16 17 17 16 16 16 16 17 17 17 19 20 20 20 21 21 21 22 23 23 23 23 21
11 12 12 12 13 14 15 16 16 16 17 18 18 18 18 19 20 22 23 23 21 19 19 19 19 19 19 19 19 19 19 20 20 20 19 17 14 10 8 6 5 5 5 7 9 12 14 15 14 12 12 13 13 12 10 10 12 14 15 15 14 13 14 15 16 16 16 15 16 16 16 17 18 18 19 20 20 20 20 21 22 22 23 24 23
11 11 11 11 12 13 14 15 15 16 15 16 16 17 17 17 19 20 22 22 22 20 20 19 19 19 19 19 19 20 20 20 21 21 23 23 19 16 13 10 7 6 6 6 8 10 11 13 15 15 14 14 13 11 11 11 12 14 15 16 15 14 14 15 15 15 16 16 16 16 16 17 18 18 18 20 20 20 20 20 21 21 22 23 23
10 10 10 11 12 13 14 15 15 16 15 15 16 15 16 17 18 19 21 22 22 21 21 20 20 19 19 19 20 20 20 20 21 21 24 26 25 23 19 16 13 10 8 6 7 8 9 11 13 14 14 13 12 11 12 13 14 15 16 16 15 15 15 15 15 15 15 15 14 14 15 17 18 17 18 19 20 19 19 20 22 22 23 23 22
9 9 9 10 11 13 14 14 15 15 15 15 15 15 15 16 17 18 20 22 22 22 22 21 21 21 21 20 20 20 20 20 21 22 24 27 28 28 26 24 21 18 14 11 8 8 8 10 11 12 13 14 13 13 14 14 15 16 17 17 17 16 16 16 17 16 15 14 14 13 14 15 16 17 17 17 17 17 17 19 21 21 21 21 21
8 8 9 10 11 12 13 13 15 16 16 16 16 15 15 16 17 18 19 21 22 23 23 22 21 21 21 21 21 21 20 20 21 21 23 25 27 28 29 28 27 26 23 19 15 12 10 9 9 10 12 15 16 16 16 16 17 17 18 19 19 17 17 17 17 16 16 16 16 16 15 15 16 17 16 15 16 15 15 16 17 17 18 18 19
8 8 8 9 10 11 12 13 15 16 17 16 16 16 15 16 17 18 19 21 22 23 23 23 22 21 21 21 21 21 20 21 21 21 21 22 23 23 25 25 26 26 26 25 23 20 17 14 12 9 9 13 15 16 17 18 18 19 19 20 20 17 17 19 18 18 19 19 18 18 18 18 18 17 15 14 14 14 14 14 14 15 15 15 16
7 7 8 8 9 10 11 13 15 17 17 16 16 16 16 17 17 18 19 21 22 22 22 22 22 22 22 22 21 21 21 21 21 20 19 20 20 20 20 21 21 21 22 24 24 22 21 19 17 14 11 11 11 13 16 18 19 20 21 23 21 18 18 21 22 22 23 22 20 19 20 21 19 17 16 15 15 14 14 13 12 12 12 11 11
7 8 8 8 8 9 10 12 14 15 16 16 16 16 17 18 18 18 19 20 20 21 20 20 21 22 23 23 22 20 21 22 21 20 19 18 18 18 18 18 18 18 18 21 22 23 23 21 20 18 15 12 11 10 12 15 18 21 22 24 24 22 22 24 23 23 25 25 23 23 25 24 21 19 18 17 16 15 13 11 10 11 11 10 11
8 9 9 8 8 9 10 10 12 13 14 15 16 16 17 18 18 19 19 19 19 19 19 20 21 21 23 24 23 20 19 20 21 21 20 19 18 18 17 16 16 16 17 18 19 21 23 23 23 21 19 17 13 11 9 11 15 18 22 24 25 26 27 26 25 25 26 26 25 26 27 26 23 21 20 19 17 17 15 14 15 13 10 10 11
8 8 8 7 8 8 9 9 10 12 13 14 15 16 16 17 18 18 18 18 17 17 18 19 20 20 21 23 23 21 19 19 20 21 21 21 21 20 19 17 16 16 16 16 17 17 19 21 22 21 21 21 19 16 13 9 9 13 19 22 21 23 26 27 25 25 25 24 25 26 25 25 25 24 22 20 19 19 18 18 17 14 11 11 13
8 8 7 7 7 8 8 8 8 10 11 12 14 15 15 16 16 16 16 16 16 17 17 18 19 19 20 21 22 22 20 19 20 20 21 22 22 21 20 19 19 18 17 17 16 16 17 19 20 20 20 21 21 20 19 15 10 6 9 13 14 16 20 21 19 19 19 20 22 22 22 24 27 26 23 22 20 19 19 17 15 14 14 15 17
8 8 8 7 7 8 8 8 8 9 10 11 12 14 14 15 15 15 15 16 16 17 18 19 19 19 19 18 19 20 21 20 20 21 21 23 23 22 20 20 20 20 19 18 18 17 17 17 18 18 19 19 19 20 20 19 17 12 7 3 4 6 10 13 11 11 13 16 16 15 17 21 23 23 21 21 21 19 18 17 16 16 17 17 18
8 9 9 9 9 9 9 9 9 9 9 10 11 12 13 14 14 14 15 16 16 17 18 19 19 19 18 18 17 18 19 20 20 20 21 23 24 23 22 21 20 20 20 19 18 18 18 17 17 16 17 17 17 17 17 18 18 16 13 10 5 2 3 5 7 7 9 11 12 13 15 18 19 18 18 19 19 18 17 17 18 19 19 18 17
8 9 10 10 10 10 10 10 10 10 10 10 10 10 11 11 12 14 15 15 16 17 17 18 18 18 18 18 17 17 18 19 19 20 21 22 23 24 25 24 23 21 20 19 19 18 18 18 17 16 15 14 13 14 14 15 16 17 16 12 9 8 8 6 5 6 7 8 9 11 13 15 16 17 18 18 19 19 18 19 19 18 18 17 16
8 9 10 10 10 11 11 11 11 11 11 10 10 10 10 10 10 12 14 15 16 16 17 17 17 18 18 18 18 17 17 17 18 19 20 21 21 22 24 27 28 25 23 21 19 19 18 18 18 17 15 13 12 12 12 14 15 16 15 14 12 12 12 12 12 13 12 12 13 14 14 14 16 17 18 19 20 20 20 19 18 17 16 15 13
9 9 10 10 10 11 11 11 11 11 11 11 11 11 10 10 10 11 13 15 16 16 16 16 16 17 18 18 18 17 16 15 16 17 19 22 23 21 22 26 28 28 25 22 20 19 18 17 17 18 16 13 12 12 12 12 13 13 12 13 13 14 14 14 15 16 16 16 16 18 19 19 19 20 21 20 20 19 19 18 17 16 15 15 14
9 9 9 10 10 11 11 11 11 11 12 12 12 11 10 10 9 10 13 15 15 15 15 15 15 17 17 17 18 17 16 15 15 15 16 20 22 21 21 23 25 26 26 24 22 21 20 17 15 17 18 15 12 11 10 9 8 6 6 8 10 12 12 14 15 16 15 15 16 17 19 20 20 20 20 19 17 16 15 16 15 15 15 15 16
8 8 8 9 10 10 10 11 12 12 13 13 13 11 10 10 9 10 12 14 15 14 14 14 15 16 17 17 17 17 16 16 15 15 16 17 19 20 20 21 22 23 24 24 23 22 22 18 14 14 16 17 14 11 8 7 7 7 6 6 8 8 9 10 11 10 10 11 12 14 15 16 15 15 15 13 11 10 10 11 12 13 13 13 13
8 7 7 8 8 9 10 11 12 13 14 14 13 12 11 10 10 10 11 13 14 14 14 14 14 15 16 17 17 17 17 16 16 16 15 15 16 18 19 20 20 20 21 21 21 21 20 19 15 13 12 13 14 12 10 9 9 10 11 12 13 13 12 12 11 9 8 9 10 11 11 11 10 10 10 10 9 9 9 10 12 13 12 12 11
Wind_Direction
35 21 21 29 40 49 59 4 326 320 323 341 359 343 326 327 337 334 315 283 262 251 250 255 256 260 263 262 256 251 253 255 254 255 255 254 256 262 260 257 260 260 259 260 259 258 257 255 252 251 250 250 249 244 238 235 230 228 229 226 221 216 215 219 221 223 225 225 222 221 224 227 225 219 212 211 211 205 204 203 199 196 197 206 210
36 24 21 26 40 50 62 53 26 8 350 352 3 356 344 342 358 4 1 352 324 289 271 266 265 262 255 255 256 251 251 253 254 255 260 260 257 261 263 259 258 260 261 262 263 263 259 255 253 253 252 250 251 247 240 237 234 231 229 226 221 218 220 222 221 221 221 222 221 216 219 226 228 225 214 209 211 206 205 205 203 201 198 207 211
50 44 41 45 52 56 63 70 67 58 36 24 24 19 11 4 14 20 21 17 1 349 332 302 290 276 256 252 255 254 255 256 257 259 263 261 256 258 262 260 256 257 261 263 263 263 259 256 253 254 252 249 251 250 244 241 238 233 228 227 225 220 222 224 222 221 220 221 223 216 216 220 221 222 216 211 212 211 208 206 209 208 199 207 210
62 66 68 68 70 72 74 76 76 77 75 69 58 49 50 37 18 354 349 356 353 355 352 337 326 302 274 267 261 258 260 260 261 263 262 256 252 257 265 269 264 258 259 261 261 259 256 254 252 251 251 248 249 250 248 245 239 233 226 225 227 224 221 223 223 224 222 218 216 216 217 219 220 217 212 211 211 212 210 206 210 208 195 200 205
65 72 78 81 81 83 85 85 85 86 79 61 42 34 35 27 2 326 321 328 331 332 330 320 306 292 283 277 268 259 260 264 267 270 270 267 264 263 266 272 270 266 263 260 257 256 251 250 251 248 246 245 245 247 249 247 240 233 227 224 226 226 224 224 225 226 226 221 218 217 213 219 224 211 201 207 208 208 209 209 213 208 194 197 199
63 68 74 81 81 80 80 79 78 74 64 53 39 22 6 348 336 328 317 314 318 320 321 313 294 284 278 271 268 262 264 274 282 282 279 282 282 276 270 267 266 269 270 263 253 252 251 250 249 245 242 244 245 245 244 244 238 231 227 224 222 223 222 222 227 229 229 225 221 220 215 216 219 204 193 199 203 206 209 210 214 211 200 197 195
60 66 70 74 73 69 65 63 61 53 46 37 18 9 6 359 351 346 338 322 315 311 309 304 280 281 284 278 275 273 275 281 285 282 277 278 279 275 270 264 261 264 268 266 256 252 253 251 246 242 242 242 241 242 238 234 233 229 224 223 224 223 220 220 226 227 226 224 222 224 225 222 212 202 198 194 194 202 208 208 209 213 207 195 192
56 61 64 65 62 60 57 54 51 42 29 11 1 3 3 4 6 4 354 335 325 318 307 290 271 280 286 283 280 277 277 282 283 281 278 275 270 266 264 260 260 260 260 263 261 254 251 248 242 240 240 237 237 240 234 226 227 227 224 223 222 220 217 219 225 222 219 223 225 228 232 232 224 214 210 206 201 198 202 205 207 212 210 196 191
52 54 58 60 58 55 51 47 45 36 19 9 6 6 1 359 358 350 339 330 324 318 306 291 279 279 279 277 276 276 278 283 286 284 282 281 275 267 263 262 263 259 250 254 259 255 246 245 247 243 235 233 237 236 227 223 223 220 221 221 215 211 210 212 220 222 221 225 228 230 232 232 229 221 211 213 213 202 195 200 201 203 207 201 195
48 48 49 53 52 48 45 40 34 28 17 8 0 353 346 341 335 327 316 313 310 299 294 297 289 281 279 277 278 281 283 284 281 278 279 282 280 274 268 263 261 257 247 247 254 255 245 242 248 242 230 228 232 225 214 213 210 207 213 217 212 210 211 210 215 221 225 228 229 227 229 230 224 218 211 212 217 208 196 197 200 200 204 203 198
43 43 42 44 44 41 39 37 33 28 19 8 358 352 348 344 344 345 332 321 317 307 304 313 303 284 276 278 280 279 278 276 273 272 276 276 273 272 271 266 265 263 255 246 247 250 245 241 239 229 223 226 224 216 211 208 205 205 210 212 209 211 216 216 218 221 225 232 234 231 233 234 225 217 212 209 213 208 200 199 200 201 203 202 199
38 37 35 33 34 33 33 33 30 25 18 15 16 15 13 9 7 5 357 349 345 336 331 332 324 304 282 275 277 275 269 265 266 267 270 270 266 269 272 267 264 258 252 248 244 243 242 240 236 224 217 220 218 212 210 208 210 215 213 209 209 215 223 225 224 227 229 233 236 234 236 237 230 224 219 212 210 206 205 203 196 196 199 197 196
35 32 29 27 25 24 24 24 22 17 11 13 21 21 18 14 10 8 2 357 357 353 345 338 329 315 300 286 276 270 266 263 264 264 263 264 264 265 263 258 258 251 246 249 244 239 238 236 232 223 216 216 216 212 210 207 210 217 217 213 213 216 224 228 229 232 234 234 235 234 237 235 230 230 227 223 216 207 207 207 194 193 196 193 189
34 31 28 26 22 20 19 17 16 14 9 11 18 19 15 13 10 9 5 358 359 0 353 344 331 310 303 300 289 277 272 269 269 267 263 262 260 259 254 247 250 250 247 248 244 238 238 235 226 219 216 214 214 214 213 209 208 212 214 216 217 218 223 229 232 235 237 238 237 236 240 237 231 231 228 223 219 211 207 203 191 192 196 191 186
34 31 28 26 22 20 19 15 13 11 8 9 13 13 12 11 9 7 4 358 357 359 354 345 335 321 308 302 301 294 286 282 280 276 273 269 263 260 254 245 247 250 247 246 244 239 238 235 226 218 215 211 213 217 216 213 212 211 211 217 221 220 223 231 237 238 239 241 240 238 241 239 230 226 223 220 219 214 206 198 193 194 194 190 186
33 31 28 26 24 23 20 16 13 9 8 9 9 10 8 7 7 5 2 358 356 355 350 345 341 335 324 309 308 308 298 292 289 286 283 277 270 266 257 246 246 250 246 241 237 236 236 233 226 217 211 208 212 217 218 216 217 217 217 220 223 223 227 233 237 238 238 239 238 238 239 238 232 224 220 222 222 215 208 204 202 198 193 189 186
34 31 28 26 26 26 24 20 16 11 10 9 8 10 8 6 7 6 4 2 359 355 349 347 345 339 330 317 314 313 304 297 292 289 287 280 274 273 264 251 244 242 244 242 234 232 232 227 222 216 210 209 212 215 216 216 217 220 220 221 223 228 231 231 231 235 239 239 239 240 238 234 232 225 222 226 224 215 210 208 204 203 200 192 189
35 32 29 29 29 28 26 24 20 16 14 12 11 12 11 10 11 11 8 4 0 356 349 345 342 337 332 325 315 307 303 300 296 292 291 284 277 274 268 260 249 237 239 244 236 232 230 224 221 217 211 212 213 212 213 215 219 222 221 223 226 231 233 231 233 239 242 240 241 244 241 233 228 225 225 228 225 216 211 207 203 206 208 201 197
34 32 31 32 32 30 29 26 23 21 19 18 15 15 14 12 14 15 13 7 0 355 348 339 333 330 326 322 316 309 305 305 303 298 294 288 279 272 266 262 253 235 234 241 238 233 229 223 221 217 212 212 212 212 212 214 219 221 224 229 231 231 232 235 239 242 241 238 238 240 238 233 229 229 228 229 228 221 215 211 208 209 211 209 207
36 35 34 33 34 33 31 31 31 28 24 23 19 17 16 14 13 15 17 14 7 359 350 339 330 325 320 317 315 312 306 305 303 298 295 290 283 274 265 260 253 239 234 237 236 232 228 223 219 213 209 210 211 212 214 214 216 219 225 232 233 230 231 234 236 238 239 236 233 234 235 233 230 233 234 233 230 223 215 212 213 214 213 215 219
39 37 36 35 35 34 33 38 41 38 35 34 31 26 23 21 15 12 15 16 12 6 359 348 336 326 322 321 320 318 311 305 297 291 293 292 287 280 271 261 251 240 236 235 234 230 226 223 218 211 207 209 210 210 213 213 215 219 224 229 230 228 227 230 231 233 236 234 229 231 236 234 228 228 229 227 226 223 216 212 216 216 214 215 219
42 41 39 37 35 34 33 37 39 38 37 37 34 31 28 27 20 12 12 15 15 12 6 356 344 330 323 322 322 321 316 309 303 296 290 287 287 285 275 263 250 240 235 234 231 227 223 220 216 211 208 207 208 209 213 215 217 220 224 226 226 226 225 227 229 230 233 232 228 229 233 232 229 227 222 216 220 222 217 214 215 214 214 217 215
47 45 42 38 35 33 33 33 33 32 32 31 30 28 26 24 20 11 9 13 18 19 14 7 354 337 324 319 318 317 313 310 310 307 294 283 284 284 275 264 254 245 237 233 231 227 222 219 214 212 210 207 205 208 213 217 219 220 222 224 225 225 226 226 226 228 230 230 228 227 227 228 230 229 221 216 219 222 220 218 214 212 215 215 212
51 47 44 40 38 36 34 33 31 29 28 27 25 23 21 20 17 13 10 13 19 19 17 15 7 353 336 319 310 308 306 304 307 311 303 287 279 278 274 262 252 246 236 231 234 231 223 217 212 211 209 205 206 211 215 217 218 220 222 225 226 225 226 226 226 227 228 228 229 228 225 226 229 229 222 218 220 220 220 219 212 211 215 213 208
51 48 45 43 41 39 37 35 32 30 28 27 25 22 19 16 14 13 10 11 14 13 11 12 10 6 356 337 320 308 304 302 301 306 306 294 282 278 275 267 258 251 235 227 236 234 225 217 212 211 208 206 210 215 218 218 218 221 223 223 224 225 226 227 226 225 225 224 227 231 229 225 226 228 222 217 217 218 219 219 215 215 218 217 214
51 48 45 44 42 39 38 36 33 32 31 29 27 24 21 17 14 11 6 5 8 8 6 4 5 8 6 358 346 327 314 307 301 303 305 300 289 282 277 273 268 255 233 229 239 236 228 218 214 214 209 207 210 214 219 220 217 219 219 219 221 224 226 226 224 224 224 222 223 230 232 227 224 225 221 215 214 215 218 219 220 221 217 216 218
55 51 46 44 41 38 37 35 32 31 31 30 28 25 24 21 18 15 8 4 6 4 4 3 3 7 8 7 4 353 336 322 310 308 312 310 299 286 279 275 271 251 224 230 243 240 233 222 215 215 208 204 206 207 214 219 216 216 217 217 221 223 224 226 224 224 225 223 222 225 228 226 224 225 222 217 215 215 217 219 221 222 217 216 220
58 53 47 44 40 37 35 33 31 29 28 30 28 25 25 24 22 20 13 6 4 3 4 5 4 6 8 8 8 5 358 343 326 318 319 322 313 296 291 287 282 261 222 226 243 246 242 233 226 223 214 209 207 202 209 217 217 219 219 218 222 225 226 225 222 222 224 223 221 223 223 223 223 224 223 219 217 217 219 221 224 223 218 219 223
61 54 49 45 40 38 35 32 30 28 26 28 27 24 25 24 24 24 18 9 6 6 6 7 7 7 6 6 7 6 3 356 343 327 320 327 329 312 311 317 309 298 262 249 265 269 258 250 246 235 222 219 210 198 205 216 219 223 224 220 220 223 225 226 223 222 222 220 221 224 225 224 223 224 224 222 220 220 221 224 228 229 225 224 224
63 57 51 47 42 39 35 32 30 27 25 26 25 23 23 24 25 26 23 16 11 11 11 10 10 9 7 7 8 7 4 3 359 346 327 325 330 321 320 330 313 300 284 270 273 279 275 269 262 247 232 225 212 203 210 217 218 224 228 225 224 222 221 224 226 225 223 222 224 227 231 231 229 227 227 226 226 227 227 229 233 235 232 227 223
63 59 53 47 42 38 34 32 29 27 25 25 24 22 21 23 25 25 24 19 15 15 15 14 12 11 9 8 9 8 7 7 9 7 352 334 328 318 312 321 316 285 274 270 272 275 281 282 268 252 244 236 223 217 220 218 217 222 225 227 230 228 224 225 227 225 225 225 226 229 232 234 233 232 233 232 231 232 230 228 230 233 231 225 224
65 59 52 45 39 35 33 32 29 27 25 23 23 22 20 21 22 24 24 21 19 19 17 17 15 12 11 11 10 10 11 11 13 17 14 2 349 334 314 307 307 280 263 264 265 262 267 272 265 252 250 247 236 225 216 214 219 224 225 225 229 230 229 232 232 230 230 229 228 228 229 232 234 235 235 234 233 233 231 227 227 228 226 224 224
68 60 53 44 39 35 33 31 28 26 24 22 22 22 19 18 19 22 24 23 22 22 19 18 17 14 14 13 12 13 15 15 17 20 23 21 12 2 348 327 315 305 281 266 257 253 256 263 265 260 256 258 253 235 217 217 225 227 226 223 223 227 231 234 236 236 235 233 231 228 226 228 232 232 232 232 231 232 230 227 227 227 226 227 228
67 61 55 46 41 37 33 30 27 24 22 20 22 21 19 18 18 20 23 24 24 24 21 20 18 17 16 15 14 16 17 18 19 23 27 29 27 22 16 8 354 335 312 284 266 259 257 258 262 263 261 265 265 245 226 227 231 229 226 221 221 228 233 234 235 236 236 235 235 231 225 226 230 228 225 226 229 232 230 226 225 227 228 229 232
67 61 54 47 43 37 33 30 26 24 22 20 21 20 18 18 20 21 23 24 24 25 24 21 19 18 17 17 17 16 17 18 19 21 26 30 31 30 28 25 20 10 353 326 298 284 275 265 261 262 262 265 267 251 233 232 234 230 224 219 222 230 234 235 234 231 230 230 229 226 224 226 231 229 224 224 228 231 229 226 227 229 231 233 235
70 59 54 52 47 40 36 32 27 25 24 22 21 20 19 20 22 24 25 25 26 27 26 22 20 20 18 18 18 17 17 17 18 19 24 27 29 29 30 30 28 25 20 9 346 321 303 285 273 266 258 256 260 257 244 235 232 230 226 222 225 233 238 239 234 227 222 219 215 214 215 220 227 230 226 224 227 229 229 229 230 230 234 237 239
74 60 59 60 52 43 39 35 31 28 26 25 22 21 23 24 25 27 28 28 28 29 28 24 22 20 19 19 20 19 17 17 17 18 21 23 25 25 26 27 27 25 24 20 14 4 346 321 300 281 262 255 256 254 246 236 230 230 229 228 230 236 240 237 231 225 220 216 215 213 209 212 222 228 224 219 222 226 227 229 231 233 237 241 244
72 60 61 59 51 45 40 38 35 32 29 28 25 25 28 28 29 31 30 30 30 29 28 26 24 22 21 20 19 18 17 17 17 17 17 19 20 21 21 23 23 24 23 21 19 15 8 359 350 331 295 275 265 254 244 238 233 232 234 236 236 238 241 237 232 231 229 227 225 221 215 216 221 221 214 212 215 220 226 231 233 234 238 241 241
69 64 61 55 50 48 43 39 37 32 30 29 28 31 34 32 32 33 32 32 31 28 26 26 25 24 23 21 19 18 18 18 17 17 16 17 18 18 19 20 20 22 22 22 22 21 17 12 8 1 343 317 294 270 251 242 237 234 235 236 232 231 237 238 236 234 232 231 229 223 219 220 220 212 204 205 208 211 219 229 228 222 223 223 221
71 69 64 57 53 49 43 40 36 32 30 31 32 35 37 36 35 36 34 32 29 27 25 25 25 25 25 24 23 21 21 21 20 18 17 16 16 15 15 18 19 20 21 22 24 25 24 23 20 14 4 349 332 305 274 255 245 240 237 233 226 223 227 232 234 233 232 231 228 223 219 217 213 207 203 204 206 205 204 206 207 210 214 212 203
73 72 68 61 54 50 47 42 38 34 32 33 34 37 38 37 38 37 35 30 27 26 25 25 25 25 25 27 26 24 23 23 23 22 21 20 18 15 13 14 15 16 17 17 20 22 24 25 26 25 21 15 6 349 318 282 260 249 242 234 227 226 227 226 226 226 227 229 228 225 221 215 208 205 204 202 204 203 195 190 194 202 211 212 204
73 69 67 61 54 50 49 45 40 37 35 35 37 38 38 37 37 35 31 27 25 25 24 23 23 22 24 27 28 27 26 25 24 24 23 23 22 20 18 17 14 13 14 14 15 17 19 21 22 24 26 26 25 20 6 336 289 262 249 240 235 236 234 230 228 227 224 224 226 225 222 214 207 204 203 202 203 202 197 194 196 199 204 203 195
73 67 62 59 57 53 50 48 44 38 36 37 37 38 37 36 33 30 26 24 23 23 22 21 21 21 21 24 28 30 31 29 28 28 26 25 23 21 21 21 19 19 18 16 16 15 15 16 18 21 24 26 27 28 24 17 5 323 268 254 251 246 237 232 235 238 233 227 225 221 215 210 206 203 199 198 196 194 193 197 202 203 203 198 190
73 66 60 59 61 59 56 54 47 40 37 36 35 36 35 33 30 25 22 22 22 21 22 22 22 21 22 23 26 30 33 33 32 32 31 29 27 25 24 22 21 22 21 20 20 18 16 17 18 21 25 26 27 28 28 28 26 23 15 345 292 253 228 219 227 241 241 232 224 213 203 203 204 202 194 189 188 189 194 199 200 197 193 189 185
72 66 63 63 66 67 64 57 49 41 37 33 31 31 30 28 26 23 21 22 22 21 22 22 22 22 24 24 25 28 31 34 34 33 32 32 30 29 28 25 22 22 21 21 20 20 21 22 23 25 26 26 28 29 30 33 34 32 34 40 46 70 147 189 210 221 221 214 205 196 191 192 195 197 193 187 186 190 191 186 182 180 178 174 173
76 70 68 68 69 69 64 57 50 42 36 32 27 25 24 22 22 22 22 22 22 22 22 22 22 24 24 25 26 28 29 31 33 33 32 31 30 31 31 30 28 24 22 20 19 20 21 22 23 25 24 23 29 33 35 40 46 47 49 54 63 75 86 108 144 159 163 163 160 165 173 175 176 180 183 182 177 173 169 164 161 161 162 159 158
79 75 73 70 68 66 62 54 49 42 36 31 27 23 21 18 19 21 22 22 23 23 23 22 23 24 23 23 24 27 27 27 30 34 34 33 31 30 31 33 33 29 25 21 19 18 19 20 20 22 23 26 36 47 53 58 62 66 70 75 81 87 95 107 119 123 125 125 126 132 139 145 150 155 159 161 160 158 157 155 151 148 148 148 146
85 82 78 73 68 65 60 52 46 39 32 28 25 22 20 19 20 22 22 23 23 24 24 24 24 24 23 22 21 24 26 25 27 31 34 35 35 33 31 32 32 31 28 24 20 19 19 19 20 22 27 34 42 50 59 64 70 79 87 95 101 105 109 115 119 122 126 129 131 132 133 134 137 138 138 139 141 144 148 149 146 145 143 140 137
91 86 80 74 67 61 53 45 39 32 26 21 19 18 19 20 22 24 24 24 24 23 24 26 27 25 25 24 22 23 24 23 24 24 22 26 31 32 31 30 30 29 27 24 22 21 22 22 22 23 28 35 43 50 55 52 52 67 88 103 112 117 121 125 128 133 139 143 145 144 142 140 139 137 135 132 132 136 142 145 147 148 145 141 137
92 88 79 71 62 53 45 37 31 25 19 16 15 16 19 21 23 26 27 24 23 24 25 26 26 25 25 25 24 24 24 22 23 21 15 14 19 22 24 26 27 26 24 22 20 20 21 21 21 21 27 32 36 44 53 50 44 49 57 70 83 94 107 116 122 131 141 145 146 147 147 146 145 144 143 143 141 141 145 147 148 149 149 147 146
88 86 78 68 57 46 37 31 25 19 15 16 17 17 19 24 26 30 31 26 24 27 27 26 25 25 25 26 25 24 24 22 21 20 18 14 11 10 12 16 19 19 19 17 15 15 17 20 21 19 22 27 28 32 39 45 53 62 66 67 68 70 74 78 79 89 105 112 118 125 129 130 134 140 143 146 146 145 142 138 135 133 132 132 131